Time,TemperatureF,DewpointF,PressureIn,WindDirection,WindDirectionDegrees,WindSpeedMPH,WindSpeedGustMPH,Humidity,HourlyPrecipIn,Conditions,Clouds,dailyrainin,SoftwareType,DateUTC
2013-05-29 00:00:00,77.0,67.3,29.75,SE,129,9.0,9.0,72,0.00,,,0.00,Wunderground v.1.15,2013-05-29 05:00:00,
2013-05-29 00:04:00,77.0,67.0,29.74,South,179,6.0,18.0,72,0.00,,,0.00,weatherlink.com 1.10,2013-05-29 05:04:00,
2013-05-29 00:10:00,76.9,67.2,29.74,SSE,148,8.0,8.0,72,0.00,,,0.00,Wunderground v.1.15,2013-05-29 05:10:00,
2013-05-29 00:15:00,76.9,67.2,29.74,ESE,119,8.0,8.0,72,0.00,,,0.00,Wunderground v.1.15,2013-05-29 05:15:00,
2013-05-29 00:19:00,76.8,67.0,29.74,SSE,154,6.0,15.0,72,0.00,,,0.00,weatherlink.com 1.10,2013-05-29 05:19:00,
2013-05-29 00:25:00,76.7,67.4,29.74,SE,132,9.0,10.0,73,0.00,,,0.00,Wunderground v.1.15,2013-05-29 05:25:00,
2013-05-29 00:30:00,76.6,67.3,29.74,SSE,153,9.0,12.0,73,0.00,,,0.00,Wunderground v.1.15,2013-05-29 05:30:00,
2013-05-29 00:34:00,76.5,67.0,29.74,SSE,155,8.0,16.0,73,0.00,,,0.00,weatherlink.com 1.10,2013-05-29 05:34:00,
2013-05-29 00:40:00,76.4,67.5,29.74,South,186,7.0,8.0,74,0.00,,,0.00,Wunderground v.1.15,2013-05-29 05:40:00,
2013-05-29 00:45:00,76.2,67.7,29.74,SSE,153,7.0,9.0,75,0.00,,,0.00,Wunderground v.1.15,2013-05-29 05:45:00,
2013-05-29 00:48:00,76.2,68.0,29.74,South,184,7.0,13.0,75,0.00,,,0.00,weatherlink.com 1.10,2013-05-29 05:48:00,
2013-05-29 00:55:00,76.1,67.6,29.74,SSE,154,7.0,7.0,75,0.00,,,0.00,Wunderground v.1.15,2013-05-29 05:55:00,
2013-05-29 01:00:00,76.1,67.6,29.74,SSE,149,6.0,7.0,75,0.00,,,0.00,Wunderground v.1.15,2013-05-29 06:00:00,
2013-05-29 01:04:00,75.9,68.0,29.74,SSE,157,6.0,13.0,76,0.00,,,0.00,weatherlink.com 1.10,2013-05-29 06:04:00,
2013-05-29 01:10:00,75.9,67.8,29.74,SSE,161,8.0,8.0,76,0.00,,,0.00,Wunderground v.1.15,2013-05-29 06:10:00,
2013-05-29 01:19:00,75.9,68.0,29.75,SSW,192,5.0,15.0,76,0.00,,,0.00,weatherlink.com 1.10,2013-05-29 06:19:00,
2013-05-29 01:25:00,76.0,67.9,29.75,South,178,8.0,13.0,76,0.00,,,0.00,Wunderground v.1.15,2013-05-29 06:25:00,
2013-05-29 01:30:00,76.0,67.9,29.75,SSE,154,8.0,8.0,76,0.00,,,0.00,Wunderground v.1.15,2013-05-29 06:30:00,
2013-05-29 01:34:00,76.0,68.0,29.76,SSW,196,7.0,15.0,77,0.00,,,0.00,weatherlink.com 1.10,2013-05-29 06:34:00,
2013-05-29 01:40:00,76.0,68.3,29.75,SSE,168,9.0,11.0,77,0.00,,,0.00,Wunderground v.1.15,2013-05-29 06:40:00,
2013-05-29 01:45:00,76.0,68.3,29.75,South,175,9.0,13.0,77,0.00,,,0.00,Wunderground v.1.15,2013-05-29 06:45:00,
2013-05-29 01:49:00,75.9,69.0,29.76,SSE,160,13.0,17.0,78,0.00,,,0.00,weatherlink.com 1.10,2013-05-29 06:49:00,
2013-05-29 01:55:00,75.9,68.5,29.76,SSE,164,10.0,13.0,78,0.00,,,0.00,Wunderground v.1.15,2013-05-29 06:55:00,
2013-05-29 02:04:00,76.0,69.0,29.76,South,180,13.0,20.0,78,0.00,,,0.00,weatherlink.com 1.10,2013-05-29 07:04:00,
2013-05-29 02:05:00,76.0,68.6,29.76,SSE,164,10.0,10.0,78,0.00,,,0.00,Wunderground v.1.15,2013-05-29 07:05:00,
2013-05-29 02:10:00,76.0,68.6,29.76,South,171,10.0,12.0,78,0.00,,,0.00,Wunderground v.1.15,2013-05-29 07:10:00,
2013-05-29 02:15:00,75.9,68.5,29.75,South,187,9.0,12.0,78,0.00,,,0.00,Wunderground v.1.15,2013-05-29 07:15:00,
2013-05-29 02:19:00,75.9,69.0,29.75,South,180,7.0,15.0,78,0.00,,,0.00,weatherlink.com 1.10,2013-05-29 07:19:00,
2013-05-29 02:25:00,75.9,68.9,29.75,SSE,165,8.0,9.0,79,0.00,,,0.00,Wunderground v.1.15,2013-05-29 07:25:00,
2013-05-29 02:30:00,75.9,68.9,29.75,South,182,7.0,10.0,79,0.00,,,0.00,Wunderground v.1.15,2013-05-29 07:30:00,
2013-05-29 02:34:00,75.8,69.0,29.75,SSW,203,9.0,15.0,79,0.00,,,0.00,weatherlink.com 1.10,2013-05-29 07:34:00,
2013-05-29 02:40:00,75.8,68.8,29.75,South,182,8.0,9.0,79,0.00,,,0.00,Wunderground v.1.15,2013-05-29 07:40:00,
2013-05-29 02:45:00,75.7,69.1,29.75,SSW,211,8.0,10.0,80,0.00,,,0.00,Wunderground v.1.15,2013-05-29 07:45:00,
2013-05-29 02:49:00,75.7,69.0,29.75,South,190,7.0,17.0,80,0.00,,,0.00,weatherlink.com 1.10,2013-05-29 07:49:00,
2013-05-29 02:55:00,75.7,69.1,29.75,South,189,10.0,10.0,80,0.00,,,0.00,Wunderground v.1.15,2013-05-29 07:55:00,
2013-05-29 03:04:00,75.6,69.0,29.75,South,180,3.0,13.0,80,0.00,,,0.00,weatherlink.com 1.10,2013-05-29 08:04:00,
2013-05-29 03:10:00,75.6,69.0,29.75,South,188,7.0,7.0,80,0.00,,,0.00,Wunderground v.1.15,2013-05-29 08:10:00,
2013-05-29 03:15:00,75.6,69.0,29.75,South,180,7.0,9.0,80,0.00,,,0.00,Wunderground v.1.15,2013-05-29 08:15:00,
2013-05-29 03:19:00,75.6,69.0,29.75,SSE,167,5.0,11.0,81,0.00,,,0.00,weatherlink.com 1.10,2013-05-29 08:19:00,
2013-05-29 03:20:00,75.5,69.3,29.75,South,175,7.0,9.0,81,0.00,,,0.00,Wunderground v.1.15,2013-05-29 08:20:00,
2013-05-29 03:25:00,75.5,69.3,29.75,South,183,8.0,9.0,81,0.00,,,0.00,Wunderground v.1.15,2013-05-29 08:25:00,
2013-05-29 03:34:00,75.4,69.0,29.75,South,174,5.0,15.0,80,0.00,,,0.00,weatherlink.com 1.10,2013-05-29 08:34:00,
2013-05-29 03:40:00,75.4,68.8,29.74,SSE,156,8.0,8.0,80,0.00,,,0.00,Wunderground v.1.15,2013-05-29 08:40:00,
2013-05-29 03:49:00,75.2,69.0,29.74,SSE,159,10.0,14.0,80,0.00,,,0.00,weatherlink.com 1.10,2013-05-29 08:49:00,
2013-05-29 03:55:00,75.1,68.5,29.74,South,184,8.0,10.0,80,0.00,,,0.00,Wunderground v.1.15,2013-05-29 08:55:00,
2013-05-29 04:00:00,75.0,68.4,29.74,SSE,163,9.0,10.0,80,0.00,,,0.00,Wunderground v.1.15,2013-05-29 09:00:00,
2013-05-29 04:04:00,74.9,68.0,29.73,SSW,198,12.0,17.0,80,0.00,,,0.00,weatherlink.com 1.10,2013-05-29 09:04:00,
2013-05-29 04:05:00,74.9,68.7,29.73,SSE,157,10.0,10.0,81,0.00,,,0.00,Wunderground v.1.15,2013-05-29 09:05:00,
2013-05-29 04:15:00,74.7,68.5,29.74,SSE,165,10.0,10.0,81,0.00,,,0.00,Wunderground v.1.15,2013-05-29 09:15:00,
2013-05-29 04:20:00,74.6,68.4,29.74,South,184,9.0,17.0,81,0.00,,,0.00,Wunderground v.1.15,2013-05-29 09:20:00,
2013-05-29 04:21:00,74.6,68.0,29.74,SSE,159,10.0,17.0,81,0.00,,,0.00,weatherlink.com 1.10,2013-05-29 09:21:00,
2013-05-29 04:30:00,74.4,68.2,29.74,SSE,164,9.0,12.0,81,0.00,,,0.00,Wunderground v.1.15,2013-05-29 09:30:00,
2013-05-29 04:36:00,74.3,68.0,29.74,SSE,162,9.0,17.0,81,0.00,,,0.00,weatherlink.com 1.10,2013-05-29 09:36:00,
2013-05-29 04:45:00,74.0,68.2,29.75,SSE,167,9.0,9.0,82,0.00,,,0.00,Wunderground v.1.15,2013-05-29 09:45:00,
2013-05-29 04:51:00,73.8,68.0,29.75,SSE,153,7.0,16.0,82,0.00,,,0.00,weatherlink.com 1.10,2013-05-29 09:51:00,
2013-05-29 05:00:00,73.4,67.9,29.75,SE,130,8.0,9.0,83,0.00,,,0.00,Wunderground v.1.15,2013-05-29 10:00:00,
2013-05-29 05:05:00,73.3,67.8,29.75,SSE,163,8.0,9.0,83,0.00,,,0.00,Wunderground v.1.15,2013-05-29 10:05:00,
2013-05-29 05:06:00,73.3,68.0,29.75,SSE,161,6.0,14.0,83,0.00,,,0.00,weatherlink.com 1.10,2013-05-29 10:06:00,
2013-05-29 05:15:00,73.0,67.5,29.75,SSE,153,8.0,8.0,83,0.00,,,0.00,Wunderground v.1.15,2013-05-29 10:15:00,
2013-05-29 05:21:00,72.9,68.0,29.76,SE,141,8.0,18.0,83,0.00,,,0.00,weatherlink.com 1.10,2013-05-29 10:21:00,
2013-05-29 05:30:00,72.8,67.3,29.76,SSE,154,9.0,13.0,83,0.00,,,0.00,Wunderground v.1.15,2013-05-29 10:30:00,
2013-05-29 05:35:00,72.7,67.2,29.75,SSE,157,9.0,13.0,83,0.00,,,0.00,Wunderground v.1.15,2013-05-29 10:35:00,
2013-05-29 05:36:00,72.7,67.0,29.76,SSE,153,14.0,18.0,83,0.00,,,0.00,weatherlink.com 1.10,2013-05-29 10:36:00,
2013-05-29 05:45:00,72.6,67.5,29.75,SE,145,9.0,10.0,84,0.00,,,0.00,Wunderground v.1.15,2013-05-29 10:45:00,
2013-05-29 05:51:00,72.5,67.0,29.76,SE,144,4.0,14.0,84,0.00,,,0.00,weatherlink.com 1.10,2013-05-29 10:51:00,
2013-05-29 06:00:00,72.3,67.2,29.76,SSE,161,8.0,9.0,84,0.00,,,0.00,Wunderground v.1.15,2013-05-29 11:00:00,
2013-05-29 06:05:00,72.2,67.4,29.76,SSE,159,7.0,10.0,85,0.00,,,0.00,Wunderground v.1.15,2013-05-29 11:05:00,
2013-05-29 06:06:00,72.3,68.0,29.76,SE,143,11.0,14.0,85,0.00,,,0.00,weatherlink.com 1.10,2013-05-29 11:06:00,
2013-05-29 06:15:00,72.1,67.3,29.75,SSE,149,9.0,12.0,85,0.00,,,0.00,Wunderground v.1.15,2013-05-29 11:15:00,
2013-05-29 06:21:00,72.2,68.0,29.76,South,176,11.0,18.0,85,0.00,,,0.00,weatherlink.com 1.10,2013-05-29 11:21:00,
2013-05-29 06:30:00,72.3,67.2,29.76,SSE,167,9.0,10.0,84,0.00,,,0.00,Wunderground v.1.15,2013-05-29 11:30:00,
2013-05-29 06:35:00,72.4,67.3,29.76,South,174,10.0,12.0,84,0.00,,,0.00,Wunderground v.1.15,2013-05-29 11:35:00,
2013-05-29 06:36:00,72.4,67.0,29.76,South,178,13.0,16.0,84,0.00,,,0.00,weatherlink.com 1.10,2013-05-29 11:36:00,
2013-05-29 06:45:00,72.4,67.3,29.76,SSE,158,10.0,11.0,84,0.00,,,0.00,Wunderground v.1.15,2013-05-29 11:45:00,
2013-05-29 06:52:00,72.4,67.0,29.76,South,182,8.0,20.0,84,0.00,,,0.00,weatherlink.com 1.10,2013-05-29 11:52:00,
2013-05-29 06:55:00,72.4,67.3,29.76,SE,138,10.0,12.0,84,0.00,,,0.00,Wunderground v.1.15,2013-05-29 11:55:00,
2013-05-29 07:00:00,72.3,67.2,29.77,South,178,8.0,11.0,84,0.00,,,0.00,Wunderground v.1.15,2013-05-29 12:00:00,
2013-05-29 07:05:00,72.3,67.2,29.77,SE,134,9.0,11.0,84,0.00,,,0.00,Wunderground v.1.15,2013-05-29 12:05:00,
2013-05-29 07:07:00,72.3,67.0,29.76,ESE,113,7.0,17.0,84,0.00,,,0.00,weatherlink.com 1.10,2013-05-29 12:07:00,
2013-05-29 07:15:00,72.1,67.0,29.76,SE,139,7.0,8.0,84,0.00,,,0.00,Wunderground v.1.15,2013-05-29 12:15:00,
2013-05-29 07:20:00,72.1,67.3,29.76,ESE,119,7.0,11.0,85,0.00,,,0.00,Wunderground v.1.15,2013-05-29 12:20:00,
2013-05-29 07:22:00,72.1,67.0,29.76,SSE,151,9.0,14.0,85,0.00,,,0.00,weatherlink.com 1.10,2013-05-29 12:22:00,
2013-05-29 07:30:00,72.1,67.3,29.77,SE,134,8.0,9.0,85,0.00,,,0.00,Wunderground v.1.15,2013-05-29 12:30:00,
2013-05-29 07:37:00,72.3,68.0,29.77,SE,146,7.0,15.0,85,0.00,,,0.00,weatherlink.com 1.10,2013-05-29 12:37:00,
2013-05-29 07:40:00,72.3,67.5,29.77,SSE,167,9.0,9.0,85,0.00,,,0.00,Wunderground v.1.15,2013-05-29 12:40:00,
2013-05-29 07:50:00,72.4,67.6,29.78,South,184,8.0,15.0,85,0.00,,,0.00,Wunderground v.1.15,2013-05-29 12:50:00,
2013-05-29 07:52:00,72.4,68.0,29.78,South,176,14.0,17.0,85,0.00,,,0.00,weatherlink.com 1.10,2013-05-29 12:52:00,
2013-05-29 08:00:00,72.4,67.6,29.78,SE,130,9.0,9.0,85,0.00,,,0.00,Wunderground v.1.15,2013-05-29 13:00:00,
2013-05-29 08:07:00,72.4,68.0,29.78,SSE,165,11.0,16.0,85,0.00,,,0.00,weatherlink.com 1.10,2013-05-29 13:07:00,
2013-05-29 08:15:00,72.2,67.4,29.78,South,180,10.0,10.0,85,0.00,,,0.00,Wunderground v.1.15,2013-05-29 13:15:00,
2013-05-29 08:22:00,72.3,68.0,29.78,South,175,12.0,19.0,85,0.00,,,0.00,weatherlink.com 1.10,2013-05-29 13:22:00,
2013-05-29 08:30:00,72.3,67.5,29.79,South,171,9.0,9.0,85,0.00,,,0.00,Wunderground v.1.15,2013-05-29 13:30:00,
2013-05-29 08:37:00,72.3,68.0,29.79,SE,137,12.0,17.0,85,0.00,,,0.00,weatherlink.com 1.10,2013-05-29 13:37:00,
2013-05-29 08:50:00,72.3,67.5,29.79,South,173,11.0,11.0,85,0.00,,,0.00,Wunderground v.1.15,2013-05-29 13:50:00,
2013-05-29 08:54:00,72.2,68.0,29.79,SSE,151,12.0,15.0,85,0.00,,,0.00,weatherlink.com 1.10,2013-05-29 13:54:00,
2013-05-29 09:00:00,72.2,67.4,29.79,South,183,9.0,9.0,85,0.00,,,0.00,Wunderground v.1.15,2013-05-29 14:00:00,
2013-05-29 09:08:00,72.2,68.0,29.79,SSE,167,6.0,18.0,85,0.00,,,0.00,weatherlink.com 1.10,2013-05-29 14:08:00,
2013-05-29 09:15:00,72.2,67.4,29.79,ESE,117,9.0,11.0,85,0.00,,,0.00,Wunderground v.1.15,2013-05-29 14:15:00,
2013-05-29 09:20:00,72.1,67.7,29.79,SE,136,8.0,8.0,86,0.00,,,0.00,Wunderground v.1.15,2013-05-29 14:20:00,
2013-05-29 09:24:00,72.1,68.0,29.79,SSE,157,9.0,15.0,86,0.00,,,0.00,weatherlink.com 1.10,2013-05-29 14:24:00,
2013-05-29 09:30:00,72.1,67.7,29.78,SSE,156,7.0,7.0,86,0.00,,,0.00,Wunderground v.1.15,2013-05-29 14:30:00,
2013-05-29 09:35:00,72.1,67.7,29.78,SSE,153,7.0,7.0,86,0.00,,,0.00,Wunderground v.1.15,2013-05-29 14:35:00,
2013-05-29 09:39:00,72.0,68.0,29.78,SSE,157,4.0,12.0,86,0.00,,,0.00,weatherlink.com 1.10,2013-05-29 14:39:00,
2013-05-29 09:45:00,71.9,67.8,29.78,SSE,149,8.0,8.0,87,0.00,,,0.00,Wunderground v.1.15,2013-05-29 14:45:00,
2013-05-29 09:50:00,72.0,67.9,29.78,SSE,152,7.0,7.0,87,0.00,,,0.00,Wunderground v.1.15,2013-05-29 14:50:00,
2013-05-29 09:54:00,72.0,68.0,29.78,SE,125,6.0,14.0,87,0.00,,,0.00,weatherlink.com 1.10,2013-05-29 14:54:00,
2013-05-29 10:00:00,71.9,68.2,29.77,South,169,8.0,11.0,88,0.00,,,0.00,Wunderground v.1.15,2013-05-29 15:00:00,
2013-05-29 10:05:00,71.9,68.2,29.77,SSE,159,8.0,11.0,88,0.00,,,0.00,Wunderground v.1.15,2013-05-29 15:05:00,
2013-05-29 10:09:00,72.0,68.0,29.77,SE,140,4.0,13.0,88,0.00,,,0.00,weatherlink.com 1.10,2013-05-29 15:09:00,
2013-05-29 10:15:00,72.2,68.1,29.77,SSE,157,7.0,9.0,87,0.00,,,0.00,Wunderground v.1.15,2013-05-29 15:15:00,
2013-05-29 10:20:00,72.6,68.5,29.77,South,171,7.0,8.0,87,0.00,,,0.00,Wunderground v.1.15,2013-05-29 15:20:00,
2013-05-29 10:24:00,72.9,69.0,29.77,SE,133,7.0,15.0,86,0.00,,,0.00,weatherlink.com 1.10,2013-05-29 15:24:00,
2013-05-29 10:30:00,73.1,68.3,29.77,SSE,166,9.0,9.0,85,0.00,,,0.00,Wunderground v.1.15,2013-05-29 15:30:00,
2013-05-29 10:35:00,73.4,68.6,29.77,South,175,10.0,17.0,85,0.00,,,0.00,Wunderground v.1.15,2013-05-29 15:35:00,
2013-05-29 10:39:00,73.4,69.0,29.76,South,178,13.0,20.0,85,0.00,,,0.00,weatherlink.com 1.10,2013-05-29 15:39:00,
2013-05-29 10:45:00,73.6,68.5,29.76,South,186,11.0,11.0,84,0.00,,,0.00,Wunderground v.1.15,2013-05-29 15:45:00,
2013-05-29 10:50:00,73.7,68.6,29.76,SE,137,10.0,12.0,84,0.00,,,0.00,Wunderground v.1.15,2013-05-29 15:50:00,
2013-05-29 10:54:00,73.7,69.0,29.76,SSE,161,23.0,23.0,84,0.00,,,0.00,weatherlink.com 1.10,2013-05-29 15:54:00,
2013-05-29 11:00:00,73.8,68.7,29.76,SSE,161,11.0,16.0,84,0.00,,,0.00,Wunderground v.1.15,2013-05-29 16:00:00,
2013-05-29 11:05:00,73.9,68.8,29.76,SSE,153,11.0,16.0,84,0.00,,,0.00,Wunderground v.1.15,2013-05-29 16:05:00,
2013-05-29 11:09:00,74.0,69.0,29.76,SSE,154,5.0,18.0,84,0.00,,,0.00,weatherlink.com 1.10,2013-05-29 16:09:00,
2013-05-29 11:15:00,74.2,69.1,29.76,SSE,160,10.0,15.0,84,0.00,,,0.00,Wunderground v.1.15,2013-05-29 16:15:00,
2013-05-29 11:20:00,74.2,69.1,29.76,SSE,154,11.0,11.0,84,0.00,,,0.00,Wunderground v.1.15,2013-05-29 16:20:00,
2013-05-29 11:24:00,74.4,69.0,29.77,South,169,13.0,19.0,84,0.00,,,0.00,weatherlink.com 1.10,2013-05-29 16:24:00,
2013-05-29 11:30:00,74.3,68.8,29.77,SSE,152,10.0,10.0,83,0.00,,,0.00,Wunderground v.1.15,2013-05-29 16:30:00,
2013-05-29 11:35:00,74.4,68.9,29.76,SE,132,13.0,13.0,83,0.00,,,0.00,Wunderground v.1.15,2013-05-29 16:35:00,
2013-05-29 11:39:00,74.4,69.0,29.76,SSE,165,17.0,26.0,83,0.00,,,0.00,weatherlink.com 1.10,2013-05-29 16:39:00,
2013-05-29 11:45:00,74.7,69.2,29.76,SE,146,11.0,15.0,83,0.00,,,0.00,Wunderground v.1.15,2013-05-29 16:45:00,
2013-05-29 11:50:00,74.7,69.2,29.77,South,178,11.0,13.0,83,0.00,,,0.00,Wunderground v.1.15,2013-05-29 16:50:00,
2013-05-29 11:54:00,74.6,69.0,29.77,SSE,148,6.0,22.0,83,0.00,,,0.00,weatherlink.com 1.10,2013-05-29 16:54:00,
2013-05-29 12:00:00,74.6,69.1,29.77,South,170,10.0,14.0,83,0.00,,,0.00,Wunderground v.1.15,2013-05-29 17:00:00,
2013-05-29 12:09:00,74.5,69.0,29.77,South,172,9.0,16.0,83,0.00,,,0.00,weatherlink.com 1.10,2013-05-29 17:09:00,
2013-05-29 12:15:00,74.5,69.0,29.77,SSE,160,10.0,10.0,83,0.00,,,0.00,Wunderground v.1.15,2013-05-29 17:15:00,
2013-05-29 12:20:00,74.4,69.2,29.77,SSW,196,10.0,10.0,84,0.00,,,0.00,Wunderground v.1.15,2013-05-29 17:20:00,
2013-05-29 12:24:00,74.4,69.0,29.77,South,190,8.0,17.0,84,0.00,,,0.00,weatherlink.com 1.10,2013-05-29 17:24:00,
2013-05-29 12:25:00,74.4,69.2,29.77,SSE,157,9.0,10.0,84,0.00,,,0.00,Wunderground v.1.15,2013-05-29 17:25:00,
2013-05-29 12:30:00,74.5,69.3,29.77,South,169,9.0,9.0,84,0.00,,,0.00,Wunderground v.1.15,2013-05-29 17:30:00,
2013-05-29 12:35:00,74.5,69.3,29.77,SSE,162,10.0,14.0,84,0.00,,,0.00,Wunderground v.1.15,2013-05-29 17:35:00,
2013-05-29 12:39:00,74.6,70.0,29.77,South,180,13.0,18.0,84,0.00,,,0.00,weatherlink.com 1.10,2013-05-29 17:39:00,
2013-05-29 12:40:00,74.6,69.4,29.77,SSE,156,10.0,10.0,84,0.00,,,0.00,Wunderground v.1.15,2013-05-29 17:40:00,
2013-05-29 12:45:00,74.9,69.7,29.77,South,178,9.0,19.0,84,0.00,,,0.00,Wunderground v.1.15,2013-05-29 17:45:00,
2013-05-29 12:50:00,74.7,69.5,29.77,SSE,149,11.0,11.0,84,0.00,,,0.00,Wunderground v.1.15,2013-05-29 17:50:00,
2013-05-29 12:54:00,74.5,69.0,29.77,SSE,153,15.0,22.0,84,0.00,,,0.00,weatherlink.com 1.10,2013-05-29 17:54:00,
2013-05-29 13:00:00,74.6,69.4,29.77,SSE,160,13.0,13.0,84,0.00,,,0.00,Wunderground v.1.15,2013-05-29 18:00:00,
2013-05-29 13:05:00,74.8,69.6,29.76,SSE,162,13.0,13.0,84,0.00,,,0.00,Wunderground v.1.15,2013-05-29 18:05:00,
2013-05-29 13:09:00,75.1,70.0,29.77,SSE,167,13.0,23.0,84,0.00,,,0.00,weatherlink.com 1.10,2013-05-29 18:09:00,
2013-05-29 13:15:00,75.2,69.7,29.76,SE,130,11.0,21.0,83,0.00,,,0.00,Wunderground v.1.15,2013-05-29 18:15:00,
2013-05-29 13:20:00,75.0,69.8,29.76,SE,144,13.0,13.0,84,0.00,,,0.00,Wunderground v.1.15,2013-05-29 18:20:00,
2013-05-29 13:24:00,74.9,70.0,29.76,SSE,157,14.0,22.0,84,0.00,,,0.00,weatherlink.com 1.10,2013-05-29 18:24:00,
2013-05-29 13:30:00,74.4,69.6,29.75,SSE,167,14.0,14.0,85,0.00,,,0.00,Wunderground v.1.15,2013-05-29 18:30:00,
2013-05-29 13:35:00,74.8,70.0,29.75,South,182,15.0,15.0,85,0.00,,,0.00,Wunderground v.1.15,2013-05-29 18:35:00,
2013-05-29 13:39:00,75.5,70.0,29.75,SSE,155,9.0,30.0,84,0.00,,,0.00,weatherlink.com 1.10,2013-05-29 18:39:00,
2013-05-29 13:45:00,76.4,70.9,29.74,South,191,13.0,14.0,83,0.00,,,0.00,Wunderground v.1.15,2013-05-29 18:45:00,
2013-05-29 13:54:00,77.0,70.0,29.74,SSE,150,14.0,28.0,80,0.00,,,0.00,weatherlink.com 1.10,2013-05-29 18:54:00,
2013-05-29 13:55:00,77.0,70.4,29.74,SSW,204,15.0,19.0,80,0.00,,,0.00,Wunderground v.1.15,2013-05-29 18:55:00,
2013-05-29 14:00:00,77.1,70.5,29.74,SE,134,16.0,16.0,80,0.00,,,0.00,Wunderground v.1.15,2013-05-29 19:00:00,
2013-05-29 14:10:00,77.1,70.8,29.74,SE,136,13.0,13.0,81,0.00,,,0.00,Wunderground v.1.15,2013-05-29 19:10:00,
2013-05-29 14:11:00,77.1,71.0,29.73,SSE,163,15.0,22.0,80,0.00,,,0.00,weatherlink.com 1.10,2013-05-29 19:11:00,
2013-05-29 14:20:00,76.7,70.4,29.73,SSE,161,15.0,15.0,81,0.00,,,0.00,Wunderground v.1.15,2013-05-29 19:20:00,
2013-05-29 14:25:00,76.7,70.4,29.73,SSW,194,15.0,17.0,81,0.00,,,0.00,Wunderground v.1.15,2013-05-29 19:25:00,
2013-05-29 14:26:00,76.6,70.0,29.73,South,184,14.0,27.0,81,0.00,,,0.00,weatherlink.com 1.10,2013-05-29 19:26:00,
2013-05-29 14:35:00,76.7,70.4,29.73,SSE,159,13.0,15.0,81,0.00,,,0.00,Wunderground v.1.15,2013-05-29 19:35:00,
2013-05-29 14:40:00,76.5,70.9,29.73,SSE,157,14.0,14.0,83,0.00,,,0.00,Wunderground v.1.15,2013-05-29 19:40:00,
2013-05-29 14:41:00,76.4,71.0,29.72,SSE,150,16.0,23.0,83,0.00,,,0.00,weatherlink.com 1.10,2013-05-29 19:41:00,
2013-05-29 14:50:00,76.7,70.8,29.72,South,171,13.0,16.0,82,0.00,,,0.00,Wunderground v.1.15,2013-05-29 19:50:00,
2013-05-29 14:56:00,77.4,71.0,29.72,SSE,150,7.0,23.0,81,0.00,,,0.00,weatherlink.com 1.10,2013-05-29 19:56:00,
2013-05-29 15:00:00,78.0,71.3,29.72,South,186,12.0,14.0,80,0.00,,,0.00,Wunderground v.1.15,2013-05-29 20:00:00,
2013-05-29 15:10:00,78.1,71.4,29.71,South,188,14.0,18.0,80,0.00,,,0.00,Wunderground v.1.15,2013-05-29 20:10:00,
2013-05-29 15:11:00,78.1,71.0,29.71,SSE,150,18.0,25.0,79,0.00,,,0.00,weatherlink.com 1.10,2013-05-29 20:11:00,
2013-05-29 15:20:00,78.4,71.0,29.71,South,184,15.0,15.0,78,0.00,,,0.00,Wunderground v.1.15,2013-05-29 20:20:00,
2013-05-29 15:25:00,78.3,70.9,29.71,South,182,15.0,15.0,78,0.00,,,0.00,Wunderground v.1.15,2013-05-29 20:25:00,
2013-05-29 15:26:00,78.3,71.0,29.71,South,186,11.0,28.0,78,0.00,,,0.00,weatherlink.com 1.10,2013-05-29 20:26:00,
2013-05-29 15:35:00,77.6,70.6,29.70,SSE,167,16.0,19.0,79,0.00,,,0.00,Wunderground v.1.15,2013-05-29 20:35:00,
2013-05-29 15:40:00,77.7,70.7,29.70,SSE,167,17.0,17.0,79,0.00,,,0.00,Wunderground v.1.15,2013-05-29 20:40:00,
2013-05-29 15:41:00,77.8,71.0,29.70,SSE,159,20.0,27.0,79,0.00,,,0.00,weatherlink.com 1.10,2013-05-29 20:41:00,
2013-05-29 15:50:00,78.0,70.6,29.70,SE,128,13.0,17.0,78,0.00,,,0.00,Wunderground v.1.15,2013-05-29 20:50:00,
2013-05-29 15:55:00,77.7,70.7,29.70,SSE,148,14.0,17.0,79,0.00,,,0.00,Wunderground v.1.15,2013-05-29 20:55:00,
2013-05-29 15:56:00,77.6,71.0,29.70,SSE,153,22.0,24.0,79,0.00,,,0.00,weatherlink.com 1.10,2013-05-29 20:56:00,
2013-05-29 16:05:00,77.7,70.7,29.69,SSE,166,14.0,15.0,79,0.00,,,0.00,Wunderground v.1.15,2013-05-29 21:05:00,
2013-05-29 16:10:00,77.7,70.7,29.69,South,186,14.0,14.0,79,0.00,,,0.00,Wunderground v.1.15,2013-05-29 21:10:00,
2013-05-29 16:11:00,77.6,71.0,29.69,South,173,14.0,24.0,79,0.00,,,0.00,weatherlink.com 1.10,2013-05-29 21:11:00,
2013-05-29 16:20:00,76.7,70.4,29.69,South,188,14.0,17.0,81,0.00,,,0.00,Wunderground v.1.15,2013-05-29 21:20:00,
2013-05-29 16:26:00,76.2,71.0,29.69,SSE,148,9.0,22.0,83,0.00,,,0.00,weatherlink.com 1.10,2013-05-29 21:26:00,
2013-05-29 16:35:00,74.7,70.9,29.68,SSE,150,10.0,14.0,88,0.25,,,0.04,Wunderground v.1.15,2013-05-29 21:35:00,
2013-05-29 16:40:00,74.4,70.9,29.68,SE,136,10.0,10.0,89,0.08,,,0.04,Wunderground v.1.15,2013-05-29 21:40:00,
2013-05-29 16:41:00,74.4,71.0,29.68,ESE,122,5.0,15.0,89,0.04,,,0.04,weatherlink.com 1.10,2013-05-29 21:41:00,
2013-05-29 16:50:00,74.7,71.6,29.67,SSE,162,9.0,9.0,90,0.00,,,0.04,Wunderground v.1.15,2013-05-29 21:50:00,
2013-05-29 16:55:00,75.1,72.0,29.67,SSE,166,9.0,9.0,90,0.00,,,0.04,Wunderground v.1.15,2013-05-29 21:55:00,
2013-05-29 16:57:00,75.1,72.0,29.67,South,182,9.0,15.0,89,0.04,,,0.04,weatherlink.com 1.10,2013-05-29 21:57:00,
2013-05-29 17:05:00,75.2,71.7,29.66,SE,141,10.0,12.0,89,0.00,,,0.04,Wunderground v.1.15,2013-05-29 22:05:00,
2013-05-29 17:12:00,75.4,72.0,29.66,SSE,150,7.0,18.0,88,0.04,,,0.04,weatherlink.com 1.10,2013-05-29 22:12:00,
2013-05-29 17:20:00,76.2,72.0,29.65,SE,146,11.0,11.0,87,0.00,,,0.04,Wunderground v.1.15,2013-05-29 22:20:00,
2013-05-29 17:27:00,76.4,72.0,29.65,SSE,167,9.0,20.0,87,0.04,,,0.04,weatherlink.com 1.10,2013-05-29 22:27:00,
2013-05-29 17:30:00,76.4,71.9,29.65,SSE,151,11.0,14.0,86,0.00,,,0.04,Wunderground v.1.15,2013-05-29 22:30:00,
2013-05-29 17:35:00,76.5,71.7,29.65,South,176,11.0,14.0,85,0.00,,,0.04,Wunderground v.1.15,2013-05-29 22:35:00,
2013-05-29 17:40:00,76.5,71.7,29.65,SSE,160,11.0,11.0,85,0.00,,,0.04,Wunderground v.1.15,2013-05-29 22:40:00,
2013-05-29 17:42:00,76.5,72.0,29.65,South,169,16.0,16.0,85,0.00,,,0.04,weatherlink.com 1.10,2013-05-29 22:42:00,
2013-05-29 17:50:00,76.6,71.7,29.66,South,173,9.0,9.0,85,0.00,,,0.04,Wunderground v.1.15,2013-05-29 22:50:00,
2013-05-29 17:55:00,76.7,71.5,29.66,South,176,8.0,9.0,84,0.00,,,0.04,Wunderground v.1.15,2013-05-29 22:55:00,
2013-05-29 17:57:00,76.7,72.0,29.66,SSE,156,6.0,17.0,84,0.00,,,0.04,weatherlink.com 1.10,2013-05-29 22:57:00,
2013-05-29 18:05:00,76.7,71.5,29.66,South,172,9.0,10.0,84,0.00,,,0.04,Wunderground v.1.15,2013-05-29 23:05:00,
2013-05-29 18:10:00,76.9,71.3,29.66,SE,138,9.0,9.0,83,0.00,,,0.04,Wunderground v.1.15,2013-05-29 23:10:00,
2013-05-29 18:12:00,77.0,72.0,29.66,SE,142,9.0,18.0,83,0.00,,,0.04,weatherlink.com 1.10,2013-05-29 23:12:00,
2013-05-29 18:20:00,77.1,71.5,29.66,SSW,202,6.0,7.0,83,0.00,,,0.04,Wunderground v.1.15,2013-05-29 23:20:00,
2013-05-29 18:25:00,77.1,71.2,29.66,South,178,8.0,8.0,82,0.00,,,0.04,Wunderground v.1.15,2013-05-29 23:25:00,
2013-05-29 18:27:00,77.2,71.0,29.66,SSE,151,8.0,15.0,82,0.00,,,0.04,weatherlink.com 1.10,2013-05-29 23:27:00,
2013-05-29 18:35:00,77.2,70.9,29.66,SSE,148,9.0,9.0,81,0.00,,,0.04,Wunderground v.1.15,2013-05-29 23:35:00,
2013-05-29 18:40:00,77.2,70.9,29.65,SE,130,10.0,10.0,81,0.00,,,0.04,Wunderground v.1.15,2013-05-29 23:40:00,
2013-05-29 18:43:00,77.3,71.0,29.65,SE,140,11.0,16.0,81,0.00,,,0.04,weatherlink.com 1.10,2013-05-29 23:43:00,
2013-05-29 18:50:00,77.4,70.7,29.64,ESE,119,10.0,10.0,80,0.00,,,0.04,Wunderground v.1.15,2013-05-29 23:50:00,
2013-05-29 18:57:00,77.7,71.0,29.65,South,186,14.0,20.0,80,0.00,,,0.04,weatherlink.com 1.10,2013-05-29 23:57:00,
2013-05-29 19:05:00,77.7,70.7,29.65,SSW,192,12.0,14.0,79,0.00,,,0.04,Wunderground v.1.15,2013-05-30 00:05:00,
2013-05-29 19:10:00,77.7,70.7,29.66,SSE,148,11.0,11.0,79,0.00,,,0.04,Wunderground v.1.15,2013-05-30 00:10:00,
2013-05-29 19:14:00,77.6,71.0,29.66,South,177,10.0,22.0,79,0.00,,,0.04,weatherlink.com 1.10,2013-05-30 00:14:00,
2013-05-29 19:20:00,77.5,70.5,29.66,SE,131,11.0,15.0,79,0.00,,,0.04,Wunderground v.1.15,2013-05-30 00:20:00,
2013-05-29 19:25:00,77.4,70.4,29.66,SSE,167,11.0,15.0,79,0.00,,,0.04,Wunderground v.1.15,2013-05-30 00:25:00,
2013-05-29 19:29:00,77.4,70.0,29.66,SSE,163,12.0,19.0,79,0.00,,,0.04,weatherlink.com 1.10,2013-05-30 00:29:00,
2013-05-29 19:30:00,77.4,70.4,29.67,SSE,164,11.0,11.0,79,0.00,,,0.04,Wunderground v.1.15,2013-05-30 00:30:00,
2013-05-29 19:40:00,76.6,70.7,29.68,South,171,12.0,12.0,82,0.00,,,0.05,Wunderground v.1.15,2013-05-30 00:40:00,
2013-05-29 19:44:00,75.8,71.0,29.69,SSW,201,11.0,18.0,84,0.02,,,0.06,weatherlink.com 1.10,2013-05-30 00:44:00,
2013-05-29 19:50:00,73.8,70.0,29.69,South,178,15.0,16.0,88,0.80,,,0.18,Wunderground v.1.15,2013-05-30 00:50:00,
2013-05-29 19:58:00,71.2,69.0,29.67,SE,146,19.0,32.0,91,0.20,,,0.24,weatherlink.com 1.10,2013-05-30 00:58:00,
2013-05-29 20:05:00,70.6,66.9,29.66,SSE,166,16.0,19.0,88,0.10,,,0.25,Wunderground v.1.15,2013-05-30 01:05:00,
2013-05-29 20:10:00,71.1,68.0,29.64,SSE,155,15.0,15.0,90,0.07,,,0.26,Wunderground v.1.15,2013-05-30 01:10:00,
2013-05-29 20:14:00,71.4,69.0,29.65,SSE,163,8.0,28.0,91,0.23,,,0.27,weatherlink.com 1.10,2013-05-30 01:14:00,
2013-05-29 20:15:00,71.4,68.6,29.65,SSE,161,16.0,16.0,91,0.12,,,0.27,Wunderground v.1.15,2013-05-30 01:15:00,
2013-05-29 20:20:00,71.5,69.1,29.64,SE,145,14.0,14.0,92,0.06,,,0.27,Wunderground v.1.15,2013-05-30 01:20:00,
2013-05-29 20:29:00,72.6,70.0,29.66,SSW,192,16.0,19.0,91,0.24,,,0.28,weatherlink.com 1.10,2013-05-30 01:29:00,
2013-05-29 20:35:00,73.0,69.9,29.68,South,170,12.0,13.0,90,0.00,,,0.28,Wunderground v.1.15,2013-05-30 01:35:00,
2013-05-29 20:44:00,73.0,70.0,29.68,South,171,10.0,19.0,90,0.20,,,0.28,weatherlink.com 1.10,2013-05-30 01:44:00,
2013-05-29 20:50:00,72.8,70.0,29.69,South,182,12.0,12.0,91,0.00,,,0.28,Wunderground v.1.15,2013-05-30 01:50:00,
2013-05-29 20:59:00,72.5,70.0,29.72,SSW,198,10.0,18.0,92,0.04,,,0.29,weatherlink.com 1.10,2013-05-30 01:59:00,
2013-05-29 21:05:00,72.1,69.3,29.70,South,174,15.0,15.0,91,0.47,,,0.32,Wunderground v.1.15,2013-05-30 02:05:00,
2013-05-29 21:10:00,71.7,68.9,29.70,SSW,201,18.0,18.0,91,0.26,,,0.35,Wunderground v.1.15,2013-05-30 02:10:00,
2013-05-29 21:14:00,71.3,68.0,29.71,South,185,20.0,33.0,90,0.10,,,0.37,weatherlink.com 1.10,2013-05-30 02:14:00,
2013-05-29 21:20:00,70.0,66.0,29.72,South,177,19.0,19.0,87,0.27,,,0.39,Wunderground v.1.15,2013-05-30 02:20:00,
2013-05-29 21:25:00,68.9,64.5,29.75,South,170,17.0,21.0,86,0.09,,,0.40,Wunderground v.1.15,2013-05-30 02:25:00,
2013-05-29 21:29:00,67.8,64.0,29.75,SSE,167,22.0,33.0,87,0.13,,,0.41,weatherlink.com 1.10,2013-05-30 02:29:00,
2013-05-29 21:35:00,66.0,62.7,29.77,SW,218,19.0,21.0,89,0.78,,,0.51,Wunderground v.1.15,2013-05-30 02:35:00,
2013-05-29 21:40:00,64.6,61.3,29.78,South,173,19.0,19.0,89,0.98,,,0.61,Wunderground v.1.15,2013-05-30 02:40:00,
2013-05-29 21:44:00,63.7,61.0,29.75,South,169,18.0,32.0,91,0.41,,,0.69,weatherlink.com 1.10,2013-05-30 02:44:00,
2013-05-29 21:50:00,63.3,60.9,29.67,SE,137,18.0,18.0,92,0.49,,,0.82,Wunderground v.1.15,2013-05-30 02:50:00,
2013-05-29 21:59:00,63.5,62.0,29.74,South,171,15.0,30.0,93,0.60,,,0.89,weatherlink.com 1.10,2013-05-30 02:59:00,
2013-05-29 22:05:00,63.7,61.6,29.69,South,190,19.0,26.0,93,0.74,,,0.97,Wunderground v.1.15,2013-05-30 03:05:00,
2013-05-29 22:10:00,63.7,61.6,29.69,South,175,17.0,21.0,93,0.17,,,0.98,Wunderground v.1.15,2013-05-30 03:10:00,
2013-05-29 22:14:00,63.8,62.0,29.70,South,173,14.0,29.0,93,0.62,,,0.99,weatherlink.com 1.10,2013-05-30 03:14:00,
2013-05-29 22:20:00,63.7,61.9,29.67,SE,138,18.0,18.0,94,0.30,,,1.02,Wunderground v.1.15,2013-05-30 03:20:00,
2013-05-29 22:25:00,63.8,61.7,29.67,SE,139,21.0,21.0,93,0.88,,,1.08,Wunderground v.1.15,2013-05-30 03:25:00,
2013-05-29 22:29:00,63.7,61.0,29.66,ESE,120,10.0,42.0,92,0.71,,,1.13,weatherlink.com 1.10,2013-05-30 03:29:00,
2013-05-29 22:35:00,65.5,61.2,29.66,SSW,202,20.0,29.0,86,1.91,,,1.21,Wunderground v.1.15,2013-05-30 03:35:00,
2013-05-29 22:44:00,66.5,61.0,29.68,SSW,212,19.0,37.0,82,0.85,,,1.57,weatherlink.com 1.10,2013-05-30 03:44:00,
2013-05-29 22:50:00,67.4,61.0,29.69,SSW,206,17.0,17.0,80,1.44,,,1.72,Wunderground v.1.15,2013-05-30 03:50:00,
2013-05-29 22:55:00,64.8,61.5,29.71,South,186,14.0,17.0,89,2.44,,,1.95,Wunderground v.1.15,2013-05-30 03:55:00,
2013-05-29 22:59:00,63.8,61.0,29.72,South,171,8.0,28.0,91,1.17,,,2.07,weatherlink.com 1.10,2013-05-30 03:59:00,
2013-05-29 23:05:00,63.9,61.8,29.73,SSE,163,9.0,11.0,93,1.54,,,2.20,Wunderground v.1.15,2013-05-30 04:05:00,
2013-05-29 23:10:00,63.6,61.5,29.72,SE,128,7.0,7.0,93,0.49,,,2.26,Wunderground v.1.15,2013-05-30 04:10:00,
2013-05-29 23:14:00,63.6,62.0,29.70,SW,227,6.0,13.0,94,1.31,,,2.30,weatherlink.com 1.10,2013-05-30 04:14:00,
2013-05-29 23:20:00,64.6,62.8,29.72,ENE,78,6.0,17.0,94,0.56,,,2.40,Wunderground v.1.15,2013-05-30 04:20:00,
2013-05-29 23:25:00,65.8,64.0,29.72,SSW,192,6.0,17.0,94,0.29,,,2.47,Wunderground v.1.15,2013-05-30 04:25:00,
2013-05-29 23:30:00,67.4,65.9,29.74,SSE,164,8.0,10.0,95,0.53,,,2.62,Wunderground v.1.15,2013-05-30 04:30:00,
2013-05-29 23:31:00,68.0,67.0,29.74,ESE,123,13.0,17.0,95,1.49,,,2.63,weatherlink.com 1.10,2013-05-30 04:31:00,
2013-05-29 23:35:00,69.3,66.2,29.72,SSE,163,9.0,10.0,90,0.19,,,2.64,Wunderground v.1.15,2013-05-30 04:35:00,
2013-05-29 23:40:00,70.3,66.6,29.71,SSE,168,10.0,10.0,88,0.07,,,2.64,Wunderground v.1.15,2013-05-30 04:40:00,
2013-05-29 23:45:00,70.4,66.3,29.71,SE,134,11.0,13.0,87,0.05,,,2.64,Wunderground v.1.15,2013-05-30 04:45:00,
2013-05-29 23:46:00,70.3,66.0,29.71,SE,146,9.0,23.0,86,1.00,,,2.64,weatherlink.com 1.10,2013-05-30 04:46:00,
2013-05-29 23:50:00,69.7,65.3,29.71,ENE,76,11.0,11.0,86,0.00,,,2.64,Wunderground v.1.15,2013-05-30 04:50:00,
2013-05-29 23:55:00,69.1,65.4,29.71,SE,135,10.0,14.0,88,0.00,,,2.64,Wunderground v.1.15,2013-05-30 04:55:00,